Regional Weather Roundup
Issued by NWS Bismarck, ND

Current Version | Previous Version | Text Only | Print | Product List | Glossary On
Versions: 1 2 3 4 5 6 7 8 9 10 11 12 13 14 15 16 17 18 19 20 21 22 23 24 25 26 27 28 29 30 31 32 33 34 35 36 37 38 39 40 41 42 43 44 45 46 47 48 49 50
000
ASUS43 KBIS 272010
RWRBIS

NWR BROADCAST TEXT
NATIONAL WEATHER SERVICE BISMARCK ND
300 PM CDT WED MAY 27 2015

NOTE: "FAIR" INDICATES FEW OR NO CLOUDS BELOW 12,000 FEET WITH NO
SIGNIFICANT WEATHER AND/OR OBSTRUCTIONS TO VISIBILITY.


CITY           SKY/WX    TMP DP  RH WIND       PRES   REMARKS
WILLISTON      CLOUDY    79  43  27 SE8G18    29.87F
MINOT          MOSUNNY   78  50  37 NE12G18   29.93F
MINOT AFB      MOSUNNY   76  51  42 E10       29.93F
BISMARCK       PTSUNNY   81  50  33 S17G23    29.94F
DICKINSON      CLOUDY    77  50  38 S16G24    29.88F
GARRISON         N/A     81  46  29 S12       29.92
HETTINGER ARPT CLOUDY    72  50  45 SE17G26   29.92F
JAMESTOWN      LGT RAIN  73  45  36 NE13G21   29.95F
BEACH          TSTM      57  57 100 W16       29.98R
CARRINGTON     FAIR      77  50  38 E8        29.96F
CROSBY         FAIR      73  50  43 E18       29.93F
HARVEY         FAIR      77  50  38 NE9       29.96F
HAZEN          FAIR      81  43  26 SE16G24   29.92F
LINTON         MOCLDY    81  54  39 S15G24    29.96F
MANDAN         FAIR      81  46  30 S17G24    29.95F
OAKES            N/A     81  54  39 W6        29.96F
STANLEY        FAIR      75  50  41 E14       29.93F
WATFORD CITY   LGT RAIN  59  50  72 SW3       29.91R
$$

CITY           SKY/WX    TMP DP  RH WIND       PRES   REMARKS
GRAND FORKS    SUNNY     74  50  42 N8        29.98R
GRAND FORKS AF SUNNY     71  49  45 N8        29.99R
DEVILS LAKE    SUNNY     73  48  40 E8        29.97F
FARGO          SUNNY     80  54  40 N3        29.96S
CANDO          FAIR      73  46  38 NE8       29.99F
CAVALIER       FAIR      68  45  42 NE9G17    30.00S
GRAFTON        FAIR      72  48  43 N13       29.99S
LANGDON        FAIR      72  48  43 NE7G16    30.02S
ROLLA          FAIR      68  45  42 NE9G22    30.02F
WALHALLA         N/A     68  45  42 MISG      30.01S
$$

CITY           SKY/WX    TMP DP  RH WIND       PRES   REMARKS
ABERDEEN       MOSUNNY   83  50  31 S7        29.97F
MOBRIDGE       PTSUNNY   81  48  31 S13       29.94F
BUFFALO          N/A     74  54  49 S13       29.86F
RAPID CITY     CLOUDY    66  56  70 S6        29.96R
GLASGOW        PTSUNNY   68  55  63 SE12G20   29.91F
SIDNEY         CLOUDY    70  50  49 NW8       29.93R
WOLF POINT     CLOUDY    65  57  75 S6        29.93F
GLENDIVE       CLOUDY    57  54  88 NW21G26   29.95F
MILES CITY     CLOUDY    60  56  86 NE5       29.94F
BAKER          CLOUDY    59  51  75 N25G33    29.95R
$$

CITY           SKY/WX    TMP DP  RH WIND       PRES   REMARKS
BILLINGS       CLOUDY    63  50  62 NW14      29.97S THUNDER
GREAT FALLS    PTSUNNY   62  49  62 W13       30.00F
REGINA         PTSUNNY   70  48  46 E12       29.97F
ESTEVAN        CLOUDY    70  48  46 E17       29.96F
$$




USA.gov is the U.S. government's official web portal to all federal, state and local government web resources and services.